Location: Paris
(48.6709°N, 2.3750°E)
Time: 00:55:44
(UTC+02:00)

QB50P2 - Pass Details

Date: 06 July 2022
Orbit: 590 x 605 km, 97.9° (Epoch: 07 August)

Event Time Altitude Azimuth Distance (km) Brightness Sun altitude
Rises 02:57:16 0° 18° (NNE) 2,864 ? -17.3°
Reaches altitude 10° 02:59:31 10° 24° (NNE) 1,958 ? -17.2°
Maximum altitude 03:03:38 48° 99° (E) 795 ? -17.0°
Enters shadow 03:05:39 27° 160° (SSE) 1,182 ? -16.9°
